Skip Page Navigation
NASA JPL Caltech
NASA Logo - Jet Propulsion Laboratory + View the NASA Portal
+ Center for Near-Earth Object Studies
JPL Home Earth Solar System Stars & Galaxies Technology
JPL Solar System Dynamics
BODIES ORBITS EPHEMERIDES TOOLS PHYSICAL DATA DISCOVERY FAQ SITE MAP
JPL Small-Body Database Browser
Search: [ help ]  
410103 (2007 EC130)
Classification: Main-belt Asteroid          SPK-ID: 2410103
Ephemeris | Orbit Diagram | Orbital Elements | Mission Design | Physical Parameters | Discovery Circumstances | Close-Approach Data ]

[ show orbit diagram ]
Orbital Elements at Epoch 2459000.5 (2020-May-31.0) TDB
Reference: JPL 10 (heliocentric ecliptic J2000)
 Element Value Uncertainty (1-sigma)   Units 
e .1641244461058061 4.9009e-07  
a 2.950861241526728 5.1374e-08 au
q 2.466552774726062 1.4529e-06 au
i 9.151643249586545 2.0062e-05 deg
node 353.8816484860233 4.3738e-05 deg
peri 330.9028258828958 0.00014586 deg
M 82.56031645802344 0.00015089 deg
tp 2458575.889766103656
(2019-Apr-02.38976610)
0.00077798 TDB
period 1851.491016030724
5.07
4.8351e-05
1.324e-07
d
yr
n .1944378864833909 5.0777e-09 deg/d
Q 3.435169708327394 5.9806e-08 au
  Orbit Determination Parameters
   # obs. used (total)      144  
   data-arc span      6432 days (17.61 yr)  
   first obs. used      2002-03-20  
   last obs. used      2019-10-29  
   planetary ephem.      DE431  
   SB-pert. ephem.      SB431-N16  
   condition code      0  
   norm. resid. RMS      .58327  
   source      ORB  
   producer      Otto Matic  
   solution date      2019-Nov-08 14:19:34  

Additional Information
 Earth MOID = 1.45986 au 
 Jupiter MOID = 1.94475 au 
 T_jup = 3.230 
[ show covariance matrix ]

Ephemeris | Orbit Diagram | Orbital Elements | Mission Design | Physical Parameters | Discovery Circumstances | Close-Approach Data ]

Physical Parameter Table
Parameter Symbol Value Units Sigma Reference Notes
absolute magnitude H 16.3   n/a MPO495079  

410103 (2007 EC130)          Discovered 2007-Mar-09 by Mt. Lemmon Survey at Mount Lemmon
Reference: Last Updated: 2014-10-09

[ show close-approach data ]
Ephemeris | Orbit Diagram | Orbital Elements | Mission Design | Physical Parameters | Discovery Circumstances | Close-Approach Data ]
ABOUT SSD CREDITS/AWARDS PRIVACY/COPYRIGHT GLOSSARY LINKS
FirstGov 2020-Dec-03 02:28 UT
(server date/time)  
NASA Home Page
Site Manager:   Ryan S. Park
Webmaster  Alan B. Chamberlin